Regional Weather Roundup
Issued by NWS San Angelo, TX

Current Version | Previous Version | Text Only | Print | Product List | Glossary On
Versions: 1 2 3 4 5 6 7 8 9 10 11 12 13 14 15 16 17 18 19 20 21 22 23 24 25 26 27 28 29 30 31 32 33 34 35 36 37 38 39 40 41 42 43 44 45 46 47 48 49 50
000
ASUS44 KSJT 290211
RWRSJT
WEST CENTRAL TEXAS REGIONAL WEATHER ROUNDUP
NATIONAL WEATHER SERVICE SAN ANGELO TX
900 PM CDT THU JUL 28 2016

NOTE: "FAIR" INDICATES FEW OR NO CLOUDS BELOW 12,000 FEET WITH NO
SIGNIFICANT WEATHER AND/OR OBSTRUCTIONS TO VISIBILITY.

TXZ049-054-064>066-071>073-076>078-098-099-113-114-127-128-139-140-
154-155-168>170-290300
...LOCATIONS ACROSS WEST CENTRAL TEXAS...

CITY           SKY/WX    TMP DP  RH WIND       PRES   REMARKS
SAN ANGELO     CLOUDY    91  55  29 S8        29.94S
ABILENE        CLOUDY    82  67  60 E3        29.98R
DYESS AFB      NOT AVBL
JUNCTION       CLEAR     84  67  56 S14G24    29.99R
SWEETWATER     CLOUDY    77  69  75 SE6       30.02R
BROWNWOOD      CLEAR     86  61  42 SE7       29.95R
COLEMAN        CLEAR     84  64  50 SE6       29.96R
SONORA         CLOUDY    90  57  33 SE7       30.02R
OZONA          FAIR      86  61  42 S10       30.01R
BRADY          NOT AVBL
$$

TEXAS PANHANDLE/OKLAHOMA PANHANDLE

CITY           SKY/WX    TMP DP  RH WIND       PRES   REMARKS
AMARILLO       CLEAR     82  56  40 SE8       30.06S
BORGER         CLEAR     90  56  31 S9        30.00S
CANADIAN       CLEAR     86  64  46 S5        29.96R
DALHART        MOCLDY    85  48  27 SW10G25   30.03F
DUMAS          PTCLDY    82  54  38 SE8       30.03F
GUYMON         NOT AVBL
HEREFORD       CLEAR    N/A N/A N/A SE7       30.08R
PAMPA          CLEAR     83  60  45 S8        30.03S
PERRYTON       CLEAR     85  60  42 SE8       29.98F
$$

SOUTHERN PANHANDLE/SOUTH PLAINS/ROLLING PLAINS

CITY           SKY/WX    TMP DP  RH WIND       PRES   REMARKS
LUBBOCK        PTCLDY    87  62  43 SE9       30.03R
SNYDER           N/A     83  66  56 E5        30.00R
CHILDRESS      CLEAR     91  62  37 E8        29.96R
SEMINOLE       CLEAR     86  57  36 SE7       30.04R
$$

PERMIAN BASIN

CITY           SKY/WX    TMP DP  RH WIND       PRES   REMARKS
MIDLAND        CLOUDY    79  69  71 S7        30.01R THUNDER
ODESSA         CLOUDY    85  61  44 E20G31    30.02R
WINK           CLEAR     91  56  30 SE9       29.96R
$$

FAR WEST/SOUTHWEST MOUNTAINS/TRANS PECOS

CITY           SKY/WX    TMP DP  RH WIND       PRES   REMARKS
ALPINE         CLEAR     78  59  50 SE9       30.15R
DRYDEN           N/A     84  64  50 SE13      29.96R
EL PASO        MOCLDY    92  52  25 E10       29.98S
FORT STOCKTON  CLEAR     86  61  42 SE15G21   30.00R
GUADALUPE PASS CLEAR     79  53  40 E21       30.16R
MARFA          CLEAR     78  56  46 E13       30.12R
PECOS          CLEAR     92  56  30 E9        29.95R
$$

DALLAS/FORT WORTH METROPLEX

CITY           SKY/WX    TMP DP  RH WIND       PRES   REMARKS
DFW AIRPORT    CLOUDY    83  71  67 S18G28    29.94R
FTW MEACHAM    CLOUDY    82  70  66 S12       29.95R
DAL-EXECUTIVE  CLOUDY    78  72  81 VRB6      29.94S
GRAND PRAIRIE  CLOUDY    79  72  78 S8        29.97R
ADDISON        PTCLDY    82  72  69 S8G20     29.96R
MESQUITE       CLOUDY    79  73  81 S3        29.96R
LANCASTER      CLOUDY    78  73  84 SW7       29.95S
$$

NORTH CENTRAL TEXAS

CITY           SKY/WX    TMP DP  RH WIND       PRES   REMARKS
SHRMAN/DENISON PTCLDY    84  73  67 S9        29.95S
GAINESVILLE    CLEAR     84  72  66 SE7       29.96S
BRIDGEPORT     MOCLDY    85  72  63 SE6       29.97R
DENTON         MOCLDY    83  70  64 S20G26    29.95R
WAXAHACHIE     DRIZZLE   76  75  98 S5        29.97S
GRANBURY       CLOUDY    81  71  73 E12G17    29.97R
$$

WESTERN NORTH TEXAS

CITY           SKY/WX    TMP DP  RH WIND       PRES   REMARKS
WICHITA FALLS  CLEAR     88  69  53 S15       29.92R
VERNON         PTCLDY    92  63  38 SE5       29.93S
BRECKENRIDGE   CLOUDY    79  75  87 E6        29.95R
COMANCHE       CLEAR     85  65  50 SE5       29.97R
$$

CENTRAL AND SOUTH CENTRAL TEXAS

CITY           SKY/WX    TMP DP  RH WIND       PRES   REMARKS
AUSTIN/BERGSTM MOCLDY    78  73  84 S7        29.97R
WACO           CLOUDY    85  69  58 SE9       29.96R
HILLSBORO      MOCLDY    81  73  75 E3        29.97S
TEMPLE         CLOUDY    84  68  58 S13       29.98R
KILLEEN-GRAY   NOT AVBL
FORT HOOD      NOT AVBL
GEORGETOWN     MOCLDY    82  70  65 S12       29.98R
LAGO VISTA     FAIR      80  72  75 S10G16    30.01R
SAN MARCOS     MOCLDY    77  73  88 SW5       30.01S
NEW BRAUNFELS  CLOUDY    75  72  90 CALM      29.97R
RANDOLPH AFB   CLOUDY    75  72  89 S6        29.98
SAN ANTONIO    CLOUDY    77  67  71 S12       29.99S
STINSON        CLOUDY    76  68  76 CALM      29.97R
PLEASANTON     NOT AVBL
LA GRANGE        N/A     78  75  92 CALM      29.96S
GIDDINGS       MOCLDY    76  72  88 CALM      30.02R
$$

EAST TEXAS

CITY           SKY/WX    TMP DP  RH WIND       PRES   REMARKS
PARIS          CLOUDY    81  64  57 S10       29.95F
CLARKSVILLE    NOT AVBL
TYLER          CLOUDY    78  72  81 E3        29.97R
LONGVIEW       CLOUDY    75  73  93 S7        29.95S
PALESTINE      MOCLDY    81  72  73 S3        29.97R
NACOGDOCHES    PTCLDY   N/A N/A N/A S5        29.94F
$$

TEXAS HILL COUNTRY AND EDWARDS PLATEAU

CITY           SKY/WX    TMP DP  RH WIND       PRES   REMARKS
LLANO          PTCLDY    84  70  61 S13       30.00R
HORSESHOE BAY  FAIR      81  69  67 S13G18    29.98R
KERRVILLE      PTCLDY    79  70  74 SE9G16    30.02S
FREDERICKSBRG  PTCLDY    78  66  66 SE3       30.02S
ROCKSPRINGS    MOCLDY    79  66  65 SE7       30.05R
HONDO          CLOUDY    73  71  93 CALM      30.01R
UVALDE         CLOUDY    73  70  89 SE6       30.00R
DEL RIO        MOCLDY    83  68  60 SE10      29.93R
$$

SOUTHEAST TEXAS

CITY           SKY/WX    TMP DP  RH WIND       PRES   REMARKS
COLLEGE STN    CLOUDY    78  71  79 E3        29.98R
CALDWELL       CLOUDY    75  73  94 CALM      30.01R
CROCKETT       PTCLDY    77  73  88 S6        30.00S
BRENHAM        CLOUDY    77  75  93 CALM      29.99R
HUNTSVILLE     PTCLDY    80  73  79 CALM      29.98S
CONROE         CLOUDY    78  74  87 SE3       29.98R
HOUSTON BUSH   MOCLDY    78  75  90 E5        29.97S
HOUSTON HOBBY  MOCLDY    83  75  77 S5        29.97R
PERLAND        PTCLDY    85  74  69 CALM      29.98S
WHARTON        CLOUDY    81  76  86 SE3       29.97S
$$

THE UPPER TEXAS COAST

CITY           SKY/WX    TMP DP  RH WIND       PRES   REMARKS
ORANGE         PTCLDY    78  72  83 E6        29.99F
PORT ARTHUR    PTCLDY    77  73  87 MISG      29.97S
GALVESTON      CLEAR     83  78  85 SE9       29.97F
ANGLETON       PTCLDY    83  78  85 CALM      29.97R
BAY CITY       CLEAR     82  78  87 SE3       29.97R
$$

TEXAS COASTAL BEND, RIO GRANDE PLAINS DEEP SOUTH TEXAS

CITY           SKY/WX    TMP DP  RH WIND       PRES   REMARKS
VICTORIA       CLOUDY    83  75  77 S9        29.96S
BEEVILLE       FAIR      82  77  84 SE3       29.96F
ROCKPORT       PTCLDY    84  76  76 SE9       29.95R
PORT ARANSAS   PTCLDY    85  79  82 SE7       29.95S
PORT LAVACA    CLOUDY    81  78  92 CALM      29.96S
CORPUS CHRISTI MOCLDY    84  76  76 SE9       29.94S
KINGSVILLE NAS MOCLDY    83  78  85 SE7       29.94R
COTULLA        LGT RAIN  75  72  90 SE13      29.96F
LAREDO         LGT RAIN  76  70  82 N15       29.95R
BROWNSVILLE    PTCLDY    85  77  77 SE9       29.93R
PORT ISABEL    PTCLDY    85  78  80 SE10      29.93R
HEBBRONVILLE   CLOUDY    83  67  60 NE8       29.97R
MCALLEN        CLEAR     89  71  55 SE15      29.92R
WESLACO        CLEAR     84  25  11 SE9       29.92R
FALFURRIAS     MOCLDY    82  75  79 E7        29.93R
EDINBURG       CLEAR     87  69  54 SE9       29.92R
$$




USA.gov is the U.S. government's official web portal to all federal, state and local government web resources and services.